| time (UTC) | temp C | wind direction | speed KPH | gust KPH | rain 1hr cm | rain 24hr cm | rain mn cm | humidity % | barometer mb |
| 20260505140316 | 12 | 59 | 19.3 | 41.8 | 0.00 | 0.00 | 0.00 | 76 | 1006.4 |
| 20260505124853 | 11 | 34 | 20.9 | 46.7 | 0.00 | 0.00 | 0.00 | 78 | 1006.3 |
| 20260505123313 | 11 | 47 | 29.0 | 41.8 | 0.00 | 0.00 | 0.00 | 80 | 1005.6 |
| 20260505121818 | 12 | 61 | 25.7 | 45.1 | 0.00 | 0.00 | 0.00 | 81 | 1005.2 |
| 20260505120322 | 12 | 43 | 29.0 | 38.6 | 0.00 | 0.00 | 0.00 | 85 | 1005.1 |
| 20260505114826 | 12 | 36 | 22.5 | 32.2 | 0.00 | 0.00 | 0.00 | 86 | 1004.6 |
| 20260505113327 | 12 | 39 | 19.3 | 32.2 | 0.00 | 0.00 | 0.00 | 86 | 1004.6 |
| 20260505111828 | 12 | 28 | 16.1 | 29.0 | 0.00 | 0.00 | 0.00 | 85 | 1004.7 |
| 20260505110315 | 12 | 22 | 22.5 | 30.6 | 0.00 | 0.00 | 0.00 | 84 | 1004.2 |
| 20260505101821 | 13 | 82 | 20.9 | 30.6 | 0.00 | 0.00 | 0.00 | 82 | 1004.3 |
| 20260505100324 | 14 | 15 | 19.3 | 27.4 | 0.00 | 0.00 | 0.00 | 82 | 1004.1 |
| 20260505094830 | 15 | 71 | 16.1 | 25.7 | 0.00 | 0.00 | 0.00 | 81 | 1003.9 |
| 20260505093331 | 15 | 58 | 17.7 | 29.0 | 0.00 | 0.00 | 0.00 | 80 | 1003.7 |
| 20260505091852 | 17 | 40 | 20.9 | 27.4 | 0.00 | 0.00 | 0.00 | 77 | 1003.1 |
| 20260505090320 | 17 | 44 | 12.9 | 22.5 | 0.00 | 0.00 | 0.00 | 81 | 1003.8 |
| 20260505084820 | 18 | 343 | 6.4 | 14.5 | 0.00 | 0.00 | 0.00 | 82 | 1003.7 |
| 20260505083325 | 17 | 345 | 6.4 | 17.7 | 0.00 | 0.00 | 0.00 | 83 | 1003.2 |
| 20260505081846 | 17 | 319 | 8.0 | 12.9 | 0.00 | 0.00 | 0.00 | 83 | 1002.7 |
| 20260505080328 | 17 | 325 | 4.8 | 12.9 | 0.00 | 0.00 | 0.00 | 82 | 1002.0 |
| 20260505074833 | 18 | 208 | 3.2 | 11.3 | 0.00 | 0.00 | 0.00 | 81 | 1001.2 |
| 20260505073313 | 18 | 212 | 3.2 | 11.3 | 0.00 | 0.00 | 0.00 | 78 | 1001.2 |
| 20260505071853 | 18 | 233 | 4.8 | 12.9 | 0.00 | 0.00 | 0.00 | 78 | 1001.1 |
| 20260505070320 | 18 | 333 | 4.8 | 8.0 | 0.00 | 0.00 | 0.00 | 78 | 1000.9 |
| 20260505064820 | 18 | 84 | 1.6 | 11.3 | 0.00 | 0.00 | 0.00 | 81 | 999.8 |
| 20260505063325 | 19 | 261 | 14.5 | 29.0 | 0.00 | 0.00 | 0.00 | 80 | 1001.7 |
| 20260505061826 | 20 | 175 | 17.7 | 30.6 | 0.00 | 0.00 | 0.00 | 73 | 1002.2 |
| 20260505060350 | 21 | 229 | 12.9 | 25.7 | 0.00 | 0.00 | 0.00 | 71 | 1002.1 |
| 20260505054853 | 21 | 173 | 6.4 | 14.5 | 0.00 | 0.00 | 0.00 | 71 | 1001.9 |
| 20260505053313 | 21 | 174 | 8.0 | 14.5 | 0.00 | 0.00 | 0.00 | 71 | 1002.1 |
| 20260505051814 | 21 | 186 | 8.0 | 12.9 | 0.00 | 0.00 | 0.00 | 70 | 1002.1 |
| 20260505050322 | 21 | 177 | 8.0 | 14.5 | 0.00 | 0.00 | 0.00 | 70 | 1002.4 |
| 20260505040313 | 21 | 196 | 12.9 | 25.7 | 0.00 | 0.00 | 0.00 | 70 | 1001.5 |
| 20260505034818 | 21 | 159 | 9.7 | 16.1 | 0.00 | 0.00 | 0.00 | 70 | 1002.1 |
| 20260505033319 | 21 | 172 | 11.3 | 17.7 | 0.00 | 0.00 | 0.00 | 70 | 1002.2 |
| 20260505031823 | 21 | 159 | 9.7 | 17.7 | 0.00 | 0.00 | 0.00 | 70 | 1002.2 |
| 20260505030327 | 21 | 163 | 12.9 | 17.7 | 0.00 | 0.00 | 0.00 | 70 | 1002.1 |
| 20260505024847 | 21 | 172 | 9.7 | 17.7 | 0.00 | 0.00 | 0.00 | 69 | 1002.2 |
| 20260505023330 | 21 | 178 | 4.8 | 11.3 | 0.00 | 0.00 | 0.00 | 69 | 1002.4 |
| 20260505021850 | 22 | 196 | 6.4 | 14.5 | 0.00 | 0.00 | 0.00 | 67 | 1002.0 |
| 20260505020329 | 22 | 176 | 4.8 | 12.9 | 0.00 | 0.00 | 0.00 | 65 | 1002.1 |
| 20260505014813 | 22 | 212 | 8.0 | 17.7 | 0.00 | 0.00 | 0.00 | 63 | 1001.9 |
| 20260505013313 | 23 | 196 | 11.3 | 19.3 | 0.00 | 0.00 | 0.00 | 63 | 1001.7 |
| 20260505011818 | 23 | 206 | 11.3 | 19.3 | 0.00 | 0.00 | 0.00 | 63 | 1001.6 |
| 20260505010318 | 23 | 171 | 9.7 | 17.7 | 0.00 | 0.00 | 0.00 | 62 | 1001.4 |
| 20260505004819 | 23 | 192 | 11.3 | 27.4 | 0.00 | 0.00 | 0.00 | 62 | 1001.6 |
| 20260505003326 | 23 | 196 | 9.7 | 22.5 | 0.00 | 0.00 | 0.00 | 62 | 1001.5 |
| 20260505001827 | 24 | 209 | 12.9 | 24.1 | 0.00 | 0.00 | 0.00 | 63 | 1001.4 |
| 20260505000351 | 24 | 189 | 11.3 | 24.1 | 0.00 | 0.00 | 0.00 | 63 | 1001.4 |
| 20260504234832 | 25 | 209 | 12.9 | 27.4 | 0.00 | 0.00 | 0.00 | 62 | 1001.0 |
| 20260504233315 | 25 | 225 | 14.5 | 29.0 | 0.00 | 0.00 | 0.00 | 61 | 1001.1 |
| 20260504231820 | 25 | 189 | 12.9 | 29.0 | 0.00 | 0.00 | 0.00 | 61 | 1001.2 |
| 20260504230321 | 25 | 209 | 17.7 | 32.2 | 0.00 | 0.00 | 0.00 | 60 | 1001.2 |
| 20260504224823 | 25 | 178 | 16.1 | 27.4 | 0.00 | 0.00 | 0.00 | 61 | 1001.1 |
| 20260504223329 | 26 | 225 | 14.5 | 30.6 | 0.00 | 0.00 | 0.00 | 59 | 1001.0 |
| 20260504221849 | 26 | 228 | 17.7 | 30.6 | 0.00 | 0.00 | 0.00 | 58 | 1000.9 |
| 20260504220316 | 26 | 200 | 16.1 | 32.2 | 0.00 | 0.00 | 0.00 | 60 | 1001.1 |
| 20260504214839 | 26 | 227 | 14.5 | 32.2 | 0.00 | 0.00 | 0.00 | 58 | 1001.1 |
| 20260504213321 | 26 | 185 | 19.3 | 37.0 | 0.00 | 0.00 | 0.00 | 56 | 1001.2 |
| 20260504211826 | 26 | 225 | 17.7 | 29.0 | 0.00 | 0.00 | 0.00 | 57 | 1001.1 |
| 20260504210328 | 27 | 227 | 17.7 | 32.2 | 0.00 | 0.00 | 0.00 | 55 | 1001.4 |
| 20260504204829 | 27 | 198 | 20.9 | 38.6 | 0.00 | 0.00 | 0.00 | 56 | 1001.5 |
| 20260504203315 | 26 | 222 | 14.5 | 25.7 | 0.00 | 0.00 | 0.00 | 58 | 1001.8 |
| 20260504201817 | 27 | 202 | 12.9 | 38.6 | 0.00 | 0.00 | 0.00 | 56 | 1001.9 |
| 20260504200325 | 26 | 213 | 20.9 | 40.2 | 0.00 | 0.00 | 0.00 | 55 | 1002.0 |
| 20260504194826 | 27 | 202 | 20.9 | 38.6 | 0.00 | 0.00 | 0.00 | 54 | 1001.9 |
| 20260504193326 | 26 | 228 | 24.1 | 46.7 | 0.00 | 0.00 | 0.00 | 52 | 1002.1 |
| 20260504191832 | 26 | 223 | 16.1 | 33.8 | 0.00 | 0.00 | 0.00 | 56 | 1002.2 |
| 20260504190314 | 26 | 221 | 24.1 | 35.4 | 0.00 | 0.00 | 0.00 | 55 | 1002.4 |
| 20260504184818 | 26 | 222 | 22.5 | 29.0 | 0.00 | 0.00 | 0.00 | 56 | 1002.5 |
| 20260504183319 | 26 | 207 | 526.3 | 32.2 | 0.00 | 0.00 | 0.00 | 56 | 1002.7 |
| 20260504181820 | -17 | 0.0 | 0.0 | 0.00 | 0.00 | 0.00 | 1002.8 | ||
| 20260504180327 | -17 | 0.0 | 0.0 | 0.00 | 0.00 | 0.00 | 1003.0 | ||
| 20260504174828 | -17 | 0.0 | 0.0 | 0.00 | 0.00 | 0.00 | 1003.1 | ||
| 20260504173314 | -17 | 0.0 | 0.0 | 0.00 | 0.00 | 0.00 | 1003.2 | ||
| 20260504171814 | -17 | 0.0 | 0.0 | 0.00 | 0.00 | 0.00 | 1003.3 | ||
| 20260504170338 | -17 | 0.0 | 0.0 | 0.00 | 0.00 | 0.00 | 1003.2 | ||
| 20260504160318 | -17 | 0.0 | 0.0 | 0.00 | 0.00 | 0.00 | 1003.2 | ||
| 20260504150322 | 21 | 196 | 24.1 | 45.1 | 0.00 | 0.00 | 0.00 | 60 | 1003.5 |